Location: Cartignies
(50.0929°N, 3.8447°E)
Time: 14:45:35
(UTC+00:00)

NOSS 3-4 (C) - Pass Details

Date: 12 January 2026
Orbit: 773 x 1438 km, 63.4° (Epoch: 26 December)

Event Time Altitude Azimuth Distance (km) Brightness Sun altitude
Rises 19:22:00 0° 234° (SW) 3,255 7.0 -30.5°
Reaches altitude 10° 19:24:20 10° 238° (WSW) 2,356 6.1 -30.9°
Enters shadow 19:29:03 59° 288° (WNW) 966 3.6 -31.6°
